Flag for San Marino Weather past 2 weeks in San Marino, San Marino

Now
70 °F

Passing clouds.


Feels Like: 70 °F
Forecast: 60 / 69 °F
Wind: N/A

Location: Rimini Airport

Current Time: Jul 26, 2014 at 3:40:16 AM

Latest Report: Jul 26, 2014 at 2:45 AM


Visibility: N/A

Pressure: 29.89 "Hg

Humidity: 94%

Dew point: 68 °F

Location of San MarinoLocation

Historic Weather in San Marino — Graph

°F

San Marino temperature yesterday

Maximum temperature yesterday: 75 °F (at 11:15 AM)
Minimum temperature yesterday: 66 °F (at 12:15 AM)
Average temperature yesterday: 71 °F

Past Weeks' High & Low Weather Summary

 TemperatureHumidityPressure
High82 °F (Jul 19, 1:45 PM)100% (Jul 12, 4:15 AM)30.07 "Hg (Jul 12, 4:15 AM)
Low57 °F (Jul 11, 6:45 AM)51% (Jul 12, 10:45 AM)29.74 "Hg (Jul 11, 2:15 AM)
Average72 °F79%29.91 "Hg
* Reported Jul 11 2:15 AM — Jul 26 2:15 AM, San Marino, Weather by CustomWeather, © 2014

Note: Actual official high and low records may vary slightly from our data, if they occured in-between our weather recording intervals... More about our weather records

Advertising

San Marino weather history for previous 24 hours

 ConditionsComfort  
Time TempWeatherWind HumidityBarometerVisibility
2:15 AM
Jul 26
70 °FPassing clouds.N/A94%29.89 "HgN/A
1:15 AM70 °FClear.N/A88%29.92 "Hg10 mi
12:45 AM68 °FClear.N/A94%29.92 "Hg10 mi
12:15 AM68 °FClear.N/A94%29.92 "Hg10 mi
11:45 PM
Jul 25
68 °FPassing clouds.N/A94%29.92 "HgN/A
11:15 PM68 °FPassing clouds.N/A94%29.92 "HgN/A
10:45 PM70 °FThunderstorms. Passing clouds.N/A83%29.92 "Hg5 mi
10:15 PM72 °FThunderstorms. Passing clouds.N/A88%29.92 "HgN/A
9:45 PM72 °FPassing clouds.N/A83%29.89 "HgN/A
9:15 PM72 °FScattered clouds.N/A83%29.89 "HgN/A
8:45 PM73 °FScattered clouds.N/A78%29.89 "HgN/A
8:15 PM73 °FPassing clouds.N/A78%29.89 "HgN/A
7:45 PM73 °FPassing clouds.N/A78%29.89 "HgN/A
7:15 PM73 °FScattered clouds.N/A78%29.89 "HgN/A
6:45 PM73 °FPassing clouds.N/A78%29.89 "HgN/A
6:15 PM73 °FPassing clouds.N/A78%29.89 "HgN/A
5:45 PM73 °FPassing clouds.N/A78%29.89 "HgN/A
5:15 PM73 °FPassing clouds.N/A78%29.89 "HgN/A
4:45 PM75 °FPassing clouds.N/A74%29.92 "HgN/A
4:15 PM75 °FPassing clouds.N/A74%29.92 "HgN/A
3:45 PM75 °FPassing clouds.N/A78%29.92 "HgN/A
3:15 PM75 °FPassing clouds.N/A78%29.95 "HgN/A
2:45 PM75 °FPassing clouds.N/A78%29.95 "HgN/A
2:15 PM75 °FScattered clouds.N/A78%29.95 "HgN/A
1:45 PM73 °FScattered clouds.N/A83%29.95 "HgN/A
1:15 PM73 °FScattered clouds.N/A83%29.95 "HgN/A
12:45 PM75 °FScattered clouds.N/A78%29.95 "HgN/A
12:15 PM75 °FScattered clouds.N/A78%29.92 "HgN/A
11:45 AM73 °FScattered clouds.N/A78%29.92 "HgN/A
11:15 AM75 °FScattered clouds.N/A78%29.92 "HgN/A
10:45 AM73 °FScattered clouds.N/A78%29.92 "HgN/A
10:15 AM72 °FScattered clouds.N/A83%29.92 "HgN/A
9:45 AM72 °FBroken clouds.N/A83%29.92 "HgN/A
9:15 AM70 °FScattered clouds.N/A88%29.92 "HgN/A
8:45 AM70 °FScattered clouds.N/A88%29.92 "HgN/A
8:15 AM70 °FPassing clouds.N/A88%29.92 "HgN/A
7:45 AM68 °FScattered clouds.N/A94%29.92 "HgN/A
7:15 AM66 °FScattered clouds.N/A94%29.89 "HgN/A
6:45 AM66 °FPassing clouds.N/A100%29.89 "HgN/A
6:15 AM66 °FLight rain. Passing clouds.N/A94%29.89 "Hg5 mi
5:45 AM66 °FLight rain. Passing clouds.N/A94%29.89 "Hg5 mi
5:15 AM66 °FLight rain. Partly cloudy.N/A100%29.89 "HgN/A
4:45 AM66 °FPassing clouds.N/A94%29.89 "HgN/A
4:15 AM66 °FPassing clouds.N/A100%29.89 "HgN/A
3:45 AM66 °FPassing clouds.N/A100%29.89 "HgN/A
3:15 AM66 °FClear.N/A94%29.89 "Hg10 mi
Weather by CustomWeather, © 2014

See weather overviewHow to use our weather pages